METAR Formatted Surface Weather Observation
Issued by NWS

Home | Current Version | Previous Version | Text Only | Print | Product List | Glossary On
Versions: 1 2 3 4 5 6 7 8 9 10 11 12 13 14 15 16 17 18 19 20 21 22 23 24 25 26 27 28 29 30 31 32 33 34 35 36 37 38 39 40 41 42 43 44 45 46 47 48 49 50
000
SAUS41 KGYX 171000
MTRNKT
SPECI KNKT 170959Z 28003KT 2 1/2SM RA BR OVC013 22/21 A2993 RMK AO2
TSE58 P0011 T02220206



USA.gov is the U.S. government's official web portal to all federal, state and local government web resources and services.